EW5697 Weather Reports


Display with metric or nautical units.
time (UTC)temp
F
wind
direction
speed
MPH
gust
MPH
rain 1hr
in
rain 24hr
in
rain mn
in
humidity
%
barometer
mb
20260906173004 54 297 0.0 0.0 0.00 0.00 0.00 82 1018.9
20260906171503 53 308 0.0 0.0 0.00 0.00 0.00 85 1018.9
20260906170114 53 305 0.0 0.0 0.00 0.00 0.00 87 1018.9
20260906164606 52 289 0.0 0.0 0.00 0.00 0.00 88 1019.0
20260906163100 52 285 0.0 0.0 0.00 0.00 0.00 89 1018.9
20260906161557 51 282 0.0 0.0 0.00 0.00 0.00 89 1018.9
20260906160055 51 27 0.0 0.0 0.00 0.00 0.00 90 1018.8
20260906154555 50 91 0.0 0.0 0.00 0.00 0.00 90 1018.8
20260906153054 50 91 0.0 0.0 0.00 0.00 0.00 90 1018.7
20260906151555 50 91 0.0 0.0 0.00 0.00 0.00 90 1018.8
20260906150052 49 91 0.0 0.0 0.00 0.00 0.00 89 1018.8
20260906144607 49 91 0.0 0.0 0.00 0.00 0.00 89 1018.7
20260906143053 49 91 0.0 0.0 0.00 0.00 0.00 89 1018.6
20260906141550 49 91 0.0 0.0 0.00 0.00 0.00 89 1018.5
20260906140045 50 91 0.0 0.0 0.00 0.00 0.00 89 1018.5
20260906134547 50 91 0.0 0.0 0.00 0.00 0.00 89 1018.5
20260906133056 50 91 0.0 0.0 0.00 0.00 0.00 89 1018.4
20260906131544 50 91 0.0 0.0 0.00 0.00 0.00 89 1018.3
20260906130049 50 91 0.0 0.0 0.00 0.00 0.00 89 1018.4
20260906124546 50 91 0.0 0.0 0.00 0.00 0.00 89 1018.6
20260906123043 50 91 0.0 0.0 0.00 0.00 0.00 89 1018.5
20260906121642 50 91 0.0 0.0 0.00 0.00 0.00 89 1018.7
20260906120046 50 91 0.0 0.0 0.00 0.00 0.00 89 1018.7
20260906114549 50 91 0.0 0.0 0.00 0.00 0.00 89 1018.7
20260906113040 50 91 0.0 0.0 0.00 0.00 0.00 88 1018.7
20260906111540 50 91 0.0 0.0 0.00 0.00 0.00 88 1018.7
20260906110038 50 91 0.0 0.0 0.00 0.00 0.00 87 1018.6
20260906104546 50 91 0.0 0.0 0.00 0.00 0.00 87 1018.6
20260906103038 50 91 0.0 0.0 0.00 0.00 0.00 87 1018.4
20260906101535 50 91 0.0 0.0 0.00 0.00 0.00 85 1018.3
20260906100035 50 91 0.0 0.0 0.00 0.00 0.00 85 1018.2
20260906094554 50 91 0.0 0.0 0.00 0.00 0.00 85 1018.4
20260906093042 50 91 0.0 0.0 0.00 0.00 0.00 85 1018.5
20260906091529 50 91 0.0 0.0 0.00 0.00 0.00 84 1018.7
20260906090031 50 91 0.0 0.0 0.00 0.00 0.00 83 1018.9
20260906084526 50 91 0.0 0.0 0.00 0.00 0.00 83 1018.9
20260906083040 51 91 0.0 0.0 0.00 0.00 0.00 81 1019.0
20260906081521 51 91 0.0 0.0 0.00 0.00 0.00 80 1019.1
20260906080018 52 91 0.0 0.0 0.00 0.00 0.00 80 1019.2
20260906074521 52 91 0.0 0.0 0.00 0.00 0.00 79 1019.3
20260906073023 52 91 0.0 0.0 0.00 0.00 0.00 79 1019.3
20260906071512 53 91 0.0 0.0 0.00 0.00 0.00 77 1019.3
20260906070010 54 91 0.0 0.0 0.00 0.00 0.00 75 1019.5
20260906064509 54 91 0.0 0.0 0.00 0.00 0.00 76 1019.6
20260906063009 54 91 0.0 0.0 0.00 0.00 0.00 73 1019.7
20260906061509 55 91 0.0 0.0 0.00 0.00 0.00 72 1019.7
20260906060008 55 91 0.0 0.0 0.00 0.00 0.00 70 1019.8
20260906054508 56 91 0.0 0.0 0.00 0.00 0.00 67 1019.9
20260906053009 56 93 0.0 0.0 0.00 0.00 0.00 65 1019.8
20260906051507 56 93 0.0 0.0 0.00 0.00 0.00 61 1019.7
20260906050006 56 93 0.0 0.0 0.00 0.00 0.00 59 1019.7
20260906044508 56 93 0.0 0.0 0.00 0.00 0.00 59 1019.5
20260906043006 56 166 0.0 0.0 0.00 0.00 0.00 55 1019.3
20260906041505 56 166 0.0 0.0 0.00 0.00 0.00 54 1019.0
20260906040013 56 166 0.0 0.0 0.00 0.00 0.00 54 1018.8
20260906034507 56 165 0.0 0.0 0.00 0.00 0.00 55 1018.6
20260906033004 56 127 0.0 0.0 0.00 0.00 0.00 54 1018.5
20260906031505 56 129 0.0 0.0 0.00 0.00 0.00 54 1018.4
20260906030008 56 124 0.0 0.0 0.00 0.00 0.00 55 1018.2
20260906024509 57 122 0.0 0.0 0.00 0.00 0.00 55 1018.2
20260906023001 58 122 0.0 0.0 0.00 0.00 0.00 57 1018.2
20260906021504 59 104 0.0 0.0 0.00 0.00 0.00 58 1018.2
20260906020100 59 212 0.0 0.0 0.00 0.00 0.00 54 1018.2
20260906020001 59 212 0.0 0.0 0.00 0.00 0.00 53 1018.2
20260906014648 60 222 0.0 0.0 0.00 0.00 0.00 50 1018.2
20260906013103 61 222 0.0 0.0 0.00 0.00 0.00 49 1018.2
20260906011605 61 228 0.0 0.0 0.00 0.00 0.00 49 1018.2
20260906010059 62 231 0.0 0.0 0.00 0.00 0.00 47 1018.2
20260906004611 62 197 0.0 0.0 0.00 0.00 0.00 46 1018.2
20260906003112 63 170 0.0 0.0 0.00 0.00 0.00 47 1018.2
20260906001556 63 222 0.0 0.0 0.00 0.00 0.00 46 1018.1
20260906000056 62 202 0.0 0.0 0.00 0.00 0.00 47 1018.1
20260905234608 62 202 0.0 0.0 0.00 0.00 0.00 48 1018.2
20260905233054 62 222 0.0 0.0 0.00 0.00 0.00 48 1018.2
20260905231554 63 190 0.0 0.0 0.00 0.00 0.00 48 1018.3
20260905230053 63 193 0.0 0.0 0.00 0.00 0.00 46 1018.3
20260905224600 63 192 0.0 1.0 0.00 0.00 0.00 47 1018.3
20260905223051 64 207 0.0 0.0 0.00 0.00 0.00 45 1018.4
20260905221609 65 105 0.0 0.0 0.00 0.00 0.00 46 1018.4
20260905220049 65 207 0.0 1.0 0.00 0.00 0.00 46 1018.6
20260905214548 65 235 0.0 1.0 0.00 0.00 0.00 46 1018.6
20260905213058 65 170 0.0 1.0 0.00 0.00 0.00 46 1018.7
20260905211546 64 159 0.0 0.0 0.00 0.00 0.00 48 1018.9
20260905210051 64 174 0.0 0.0 0.00 0.00 0.00 49 1019.0
20260905204547 65 245 0.0 0.0 0.00 0.00 0.00 48 1019.1
20260905203045 65 173 0.0 3.0 0.00 0.00 0.00 51 1018.9
20260905201553 65 212 0.0 0.0 0.00 0.00 0.00 51 1019.1
20260905200044 65 291 0.0 1.0 0.00 0.00 0.00 52 1019.1
20260905194535 63 187 0.0 0.0 0.00 0.00 0.00 56 1019.2
20260905193033 63 202 0.0 0.0 0.00 0.00 0.00 55 1019.4
20260905191531 62 202 0.0 1.0 0.00 0.00 0.00 56 1019.7
20260905190029 62 231 0.0 0.0 0.00 0.00 0.00 59 1019.7
20260905184535 60 33 0.0 1.0 0.00 0.00 0.00 62 1019.8
20260905183021 58 241 0.0 0.0 0.00 0.00 0.00 69 1020.1
20260905181517 57 279 0.0 1.0 0.00 0.00 0.00 75 1020.2
20260905180016 55 212 0.0 0.0 0.00 0.00 0.00 76 1020.6
20260905174509 53 251 0.0 0.0 0.00 0.00 0.00 83 1020.5